This is the latest recevied weather packets stored in our database for station/object wb2ifs-13. If no packets are shown the sender has not sent any weather packets the latest 10 day(s).
| Time | Temp. | Humidity | Pressure | Rain* | Wind** | Luminosity | Snow |
|---|---|---|---|---|---|---|---|
| 1777921202 | 25.56° C | 35% | 1012.2 hPa | 0 mm | - | - | - |
| 1777920302 | 24.44° C | 34% | 1012.5 hPa | 0 mm | - | - | - |
| 1777919401 | 23.89° C | 36% | 1012.7 hPa | 0 mm | - | - | - |
| 1777918501 | 23.89° C | 36% | 1013.1 hPa | 0 mm | - | - | - |
| 1777917601 | 23.89° C | 37% | 1013.4 hPa | 0 mm | - | - | - |
| 1777916699 | 23.89° C | 37% | 1013.4 hPa | 0 mm | - | - | - |
| 1777915800 | 23.33° C | 37% | 1013.8 hPa | 0 mm | - | - | - |
| 1777914898 | 23.33° C | 36% | 1013.8 hPa | 0 mm | - | - | - |
| 1777913999 | 23.89° C | 35% | 1013.8 hPa | 0 mm | - | - | - |
| 1777913099 | 22.78° C | 35% | 1013.9 hPa | 0 mm | - | - | - |
| 1777912199 | 22.78° C | 36% | 1014 hPa | 0 mm | - | - | - |
| 1777911298 | 22.22° C | 37% | 1014.2 hPa | 0 mm | - | - | - |
| 1777910401 | 21.67° C | 37% | 1014.5 hPa | 0 mm | - | - | - |
| 1777909498 | 21.67° C | 37% | 1014.7 hPa | 0 mm | - | - | - |
| 1777908599 | 21.11° C | 38% | 1014.6 hPa | 0 mm | - | - | - |
| 1777907700 | 21.11° C | 38% | 1014.6 hPa | 0 mm | - | - | - |
| 1777906800 | 20.56° C | 39% | 1014.6 hPa | 0 mm | - | - | - |
| 1777905899 | 19.44° C | 42% | 1014.8 hPa | 0 mm | - | - | - |
| 1777904998 | 18.89° C | 42% | 1014.9 hPa | 0 mm | - | - | - |
| 1777904099 | 18.33° C | 47% | 1014.8 hPa | 0 mm | - | - | - |
| 1777903201 | 16.67° C | 49% | 1015.2 hPa | 0 mm | - | - | - |
| 1777902298 | 15.56° C | 52% | 1015.5 hPa | 0 mm | - | - | - |
| 1777901399 | 15° C | 54% | 1015.7 hPa | 0 mm | - | - | - |
| 1777900498 | 13.89° C | 57% | 1015.6 hPa | 0 mm | - | - | - |
| 1777899601 | 13.33° C | 59% | 1015.6 hPa | 0 mm | - | - | - |
* Rain latest hour (hover to see other rain measurements)
** Current wind speed in m/s (hover to see current wind gust speed)